Location: Unspecified
(0.0000°N, 0.0000°E)
Time: 13:59:20
(UTC+00:00)

Altair - Pass Details

Date: 04 November 2021
Orbit: 1502 x 1682 km, 47.2° (Epoch: 26 November)

Event Time Altitude Azimuth Distance (km) Brightness Sun altitude
Rises 19:22:48 0° 206° (SSW) 4,754 10.7 -23.8°
Reaches altitude 10° 19:26:09 10° 199° (SSW) 3,743 10.0 -24.6°
Maximum altitude 19:34:56 43° 130° (SE) 2,030 7.8 -26.7°
Enters shadow 19:36:23 41° 109° (ESE) 2,090 7.8 -27.1°
Drops below altitude 10° 19:43:26 10° 62° (ENE) 3,649 - -28.7°
Sets 19:46:38 0° 56° (NE) 4,624 - -29.5°
